Location: Karcze
(52.0945°N, 22.4786°E)
Time: 02:21:28
(UTC+00:00)

A-11 Canister half - Pass Details

Date: 10 August 2021
Orbit: 1514 x 1685 km, 47.2° (Epoch: 16 September)

Event Time Altitude Azimuth Distance (km) Brightness Sun altitude
Rises 17:34:35 0° 279° (W) 4,823 13.8 3.3°
Reaches altitude 10° 17:37:44 10° 275° (W) 3,858 12.9 2.8°
Maximum altitude 17:47:15 55° 202° (SSW) 1,935 9.6 1.5°
Drops below altitude 10° 17:57:00 10° 128° (SE) 3,942 10.5 0.1°
Sets 18:00:16 0° 124° (SE) 4,933 11.0 -0.3°
Enters shadow 18:00:16 - 124° (SE) 4,934 11.0 -0.3°
